N6OIM Weather Reports


Display with metric or nautical units.
time (UTC)temp
F
wind
direction
speed
MPH
gust
MPH
rain 1hr
in
rain 24hr
in
rain mn
in
humidity
%
barometer
mb
20211019074829 46 318 0.0 0.0 0.00 0.00 0.00 83 1015.5
20211019073822 47 318 0.0 0.0 0.00 0.00 0.00 83 1015.7
20211019073326 47 318 0.0 0.0 0.00 0.00 0.00 83 1015.7
20211019072328 47 318 0.0 0.0 0.00 0.00 0.00 83 1015.7
20211019071827 47 318 0.0 0.0 0.00 0.00 0.00 82 1015.8
20211019071329 47 318 0.0 0.0 0.00 0.00 0.00 82 1015.7
20211019070822 47 318 0.0 0.0 0.00 0.00 0.00 83 1015.7
20211019070319 47 318 0.0 0.0 0.00 0.00 0.00 82 1015.7
20211019065914 47 318 0.0 0.0 0.00 0.00 0.00 82 1015.7
20211019063410 48 318 0.0 0.0 0.00 0.00 0.00 82 1015.7
20211019062857 48 318 0.0 0.0 0.00 0.00 0.00 81 1015.8
20211019062342 48 318 0.0 0.0 0.00 0.00 0.00 81 1015.8
20211019061826 48 318 0.0 0.0 0.00 0.00 0.00 81 1015.7
20211019061413 48 318 0.0 0.0 0.00 0.00 0.00 81 1015.7
20211019054903 49 318 0.0 0.0 0.00 0.00 0.00 79 1015.8
20211019053415 49 318 0.0 0.0 0.00 0.02 0.00 78 1015.7
20211019052906 49 318 0.0 0.0 0.00 0.02 0.00 77 1015.8
20211019052405 49 318 0.0 0.0 0.00 0.02 0.00 77 1015.7
20211019051411 50 318 0.0 0.0 0.00 0.02 0.00 76 1015.6
20211019045409 50 318 0.0 0.0 0.00 0.02 0.00 75 1015.5
20211019044414 50 318 0.0 0.0 0.00 0.11 0.00 74 1015.5
20211019043354 51 318 0.0 0.0 0.00 0.11 0.00 73 1015.4
20211019042847 51 318 0.0 0.0 0.00 0.11 0.00 73 1015.3
20211019042342 51 318 0.0 0.0 0.00 0.11 0.00 72 1015.2
20211019041832 51 318 0.0 0.0 0.00 0.11 0.00 72 1015.2
20211019041317 51 318 0.0 0.0 0.00 0.11 0.00 71 1015.2
20211019040913 51 318 0.0 0.0 0.00 0.11 0.00 71 1015.2
20211019035407 52 318 0.0 0.0 0.00 0.11 0.00 70 1015.2
20211019034409 52 318 0.0 0.0 0.00 0.11 0.00 69 1015.0
20211019033857 52 318 0.0 0.0 0.00 0.11 0.00 69 1015.0
20211019033343 52 318 0.0 0.0 0.00 0.11 0.00 68 1015.1
20211019032830 53 318 0.0 0.0 0.00 0.11 0.00 68 1015.0
20211019032325 53 318 0.0 0.0 0.00 0.11 0.00 67 1015.0
20211019031823 53 318 0.0 0.0 0.00 0.11 0.00 66 1014.9
20211019024913 55 318 0.0 0.0 0.00 0.11 0.00 62 1015.0
20211019024403 55 318 0.0 0.0 0.00 0.11 0.00 62 1015.1
20211019023852 55 318 0.0 0.0 0.00 0.11 0.00 61 1015.1
20211019023350 56 318 0.0 0.0 0.00 0.11 0.00 60 1015.1
20211019022837 56 318 0.0 0.0 0.00 0.11 0.00 60 1015.0
20211019022318 56 318 0.0 0.0 0.00 0.11 0.00 59 1014.9
20211019021813 57 318 0.0 0.0 0.00 0.11 0.00 58 1014.9
20211019020910 58 318 0.0 0.0 0.00 0.11 0.00 56 1014.9
20211019020411 58 318 0.0 0.0 0.00 0.11 0.00 55 1014.9
20211019015857 59 318 0.0 0.0 0.00 0.11 0.00 54 1014.8
20211019015415 59 318 0.0 0.0 0.00 0.11 0.00 53 1014.8
20211019012916 61 318 0.0 0.0 0.00 0.11 0.00 50 1014.9
20211019012400 62 318 0.0 0.0 0.00 0.11 0.00 49 1014.8
20211019011853 62 318 0.0 0.0 0.00 0.11 0.00 48 1014.8
20211019011352 63 318 0.0 0.0 0.00 0.11 0.00 47 1014.8
20211019010841 63 318 0.0 0.0 0.00 0.11 0.00 46 1014.8
20211019010341 63 318 0.0 0.0 0.00 0.11 0.00 45 1014.7
20211019005826 64 318 0.0 0.0 0.00 0.11 0.00 45 1014.8
20211019004411 64 318 0.0 4.0 0.00 0.11 0.00 43 1014.7
20211019002910 65 41 0.0 3.0 0.00 0.11 0.00 43 1014.7
20211019001412 65 96 1.0 2.0 0.00 0.11 0.00 42 1014.7
20211019000358 65 99 1.0 2.0 0.00 0.11 0.00 43 1014.8
20211018235858 65 99 1.0 3.0 0.00 0.11 0.00 43 1014.8
20211018235343 65 99 1.0 3.0 0.00 0.11 0.00 44 1014.8
20211018234831 65 99 2.0 3.0 0.00 0.11 0.00 43 1014.7
20211018232318 65 127 0.0 3.0 0.00 0.11 0.00 43 1014.9
20211018231911 65 127 2.0 3.0 0.00 0.11 0.00 43 1014.9
20211018230908 65 130 2.0 4.0 0.00 0.11 0.00 44 1015.0
20211018230355 65 134 2.0 4.0 0.00 0.11 0.00 44 1015.1
20211018225852 65 140 1.0 3.0 0.00 0.11 0.00 44 1015.0
20211018225355 65 150 0.0 3.0 0.00 0.11 0.00 44 1015.1
20211018224846 65 150 1.0 3.0 0.00 0.11 0.00 45 1015.1
20211018224332 65 155 1.0 3.0 0.00 0.11 0.00 44 1015.1
20211018223823 65 155 0.0 3.0 0.00 0.11 0.00 44 1015.1
20211018223322 65 174 2.0 4.0 0.00 0.11 0.00 44 1015.1
20211018215901 64 78 2.0 3.0 0.00 0.11 0.00 46 1015.1
20211018215355 64 360 0.0 4.0 0.00 0.11 0.00 46 1015.2
20211018214823 64 261 2.0 5.0 0.00 0.11 0.00 46 1015.2
20211018214411 64 186 2.0 5.0 0.00 0.11 0.00 46 1015.1
20211018213848 64 360 2.0 4.0 0.00 0.11 0.00 47 1015.1
20211018213324 64 302 1.0 5.0 0.00 0.11 0.00 46 1015.1
20211018211909 64 259 2.0 5.0 0.00 0.11 0.00 46 1015.3
20211018211354 65 248 2.0 5.0 0.00 0.11 0.00 44 1015.3
20211018210840 65 179 3.0 5.0 0.00 0.11 0.00 45 1015.3
20211018210334 65 167 3.0 7.0 0.00 0.11 0.00 45 1015.4
20211018205823 66 233 5.0 7.0 0.00 0.11 0.00 45 1015.4
20211018205409 66 252 4.0 4.0 0.00 0.11 0.00 45 1015.4
20211018204916 65 183 2.0 7.0 0.00 0.11 0.00 47 1015.4
20211018204349 64 202 4.0 7.0 0.00 0.11 0.00 46 1015.5
20211018203852 64 98 3.0 6.0 0.00 0.11 0.00 46 1015.5
20211018203355 64 130 2.0 6.0 0.00 0.11 0.00 49 1015.5
20211018202831 64 130 3.0 5.0 0.00 0.11 0.00 50 1015.5
20211018202324 63 90 3.0 5.0 0.00 0.11 0.00 48 1015.6
20211018201826 63 142 2.0 4.0 0.00 0.11 0.00 49 1015.6
20211018201327 63 281 3.0 10.0 0.00 0.11 0.00 52 1015.7
20211018200915 62 121 2.0 10.0 0.00 0.11 0.00 51 1015.7
20211018200357 62 107 2.0 6.0 0.00 0.11 0.00 52 1015.7
20211018195830 62 217 4.0 10.0 0.00 0.11 0.00 51 1015.7
20211018195336 62 116 3.0 10.0 0.00 0.11 0.00 53 1015.6
20211018194827 61 182 3.0 4.0 0.00 0.11 0.00 54 1015.6
20211018194411 61 190 3.0 4.0 0.00 0.11 0.00 57 1015.6
20211018193902 61 200 3.0 4.0 0.00 0.11 0.00 54 1015.6
20211018191858 60 165 2.0 6.0 0.00 0.11 0.00 57 1015.8
20211018191337 60 148 2.0 6.0 0.00 0.11 0.00 56 1015.8
20211018190831 61 146 2.0 7.0 0.00 0.11 0.00 57 1015.9
20211018185359 60 128 4.0 14.0 0.00 0.11 0.00 58 1016.0
20211018180903 59 148 2.0 10.0 0.00 0.11 0.00 63 1015.8
20211018180347 58 111 2.0 5.0 0.00 0.11 0.00 65 1015.8
20211018175825 58 162 4.0 6.0 0.00 0.11 0.00 66 1015.8
20211018175418 57 114 3.0 10.0 0.00 0.11 0.00 66 1016.0
20211018174908 57 123 2.0 10.0 0.00 0.11 0.00 66 1015.9
20211018173904 57 107 4.0 7.0 0.00 0.11 0.00 67 1016.0
20211018172858 56 115 3.0 5.0 0.00 0.11 0.00 69 1015.8
20211018172348 56 115 3.0 5.0 0.00 0.11 0.00 70 1015.8
20211018171856 56 125 3.0 5.0 0.00 0.11 0.00 71 1015.7
20211018171343 56 157 3.0 9.0 0.00 0.11 0.00 72 1015.6
20211018170834 56 173 5.0 9.0 0.00 0.11 0.00 73 1015.7
20211018170329 55 157 1.0 4.0 0.00 0.11 0.00 74 1015.5
20211018165914 55 114 3.0 5.0 0.00 0.11 0.00 75 1015.5
20211018165351 55 163 2.0 5.0 0.00 0.11 0.00 76 1015.5
20211018164844 54 126 1.0 5.0 0.00 0.11 0.00 76 1015.6
20211018164320 54 115 3.0 6.0 0.00 0.11 0.00 77 1015.5
20211018162906 53 128 4.0 6.0 0.00 0.11 0.00 77 1015.4
20211018162401 53 114 2.0 4.0 0.00 0.11 0.00 78 1015.5
20211018161847 53 116 3.0 5.0 0.00 0.11 0.00 78 1015.4
20211018161341 53 126 2.0 5.0 0.00 0.11 0.00 78 1015.4
20211018160832 53 109 3.0 7.0 0.00 0.11 0.00 80 1015.4
20211018160313 53 121 6.0 7.0 0.00 0.11 0.00 82 1015.3
20211018155829 52 127 1.0 3.0 0.00 0.11 0.00 83 1015.0
20211018154912 52 121 3.0 6.0 0.00 0.11 0.00 84 1014.9
20211018153907 51 136 3.0 5.0 0.00 0.11 0.00 86 1014.7
20211018152851 50 152 2.0 4.0 0.00 0.11 0.00 86 1014.6
20211018152342 50 126 1.0 4.0 0.00 0.11 0.00 86 1014.5
20211018151820 49 128 3.0 4.0 0.00 0.11 0.00 86 1014.4
20211018150319 49 147 0.0 1.0 0.00 0.11 0.00 85 1014.3
20211018144401 49 147 1.0 1.0 0.00 0.11 0.00 85 1014.1
20211018143405 49 150 0.0 2.0 0.00 0.11 0.00 84 1014.1
20211018142840 49 150 0.0 2.0 0.00 0.11 0.00 84 1013.9
20211018142329 49 150 0.0 2.0 0.00 0.11 0.00 84 1013.8
20211018141832 49 150 0.0 2.0 0.00 0.11 0.00 84 1013.8
20211018141329 49 150 0.0 1.0 0.00 0.11 0.00 84 1013.9
20211018140825 49 150 0.0 1.0 0.00 0.11 0.00 84 1014.0
20211018134856 50 150 0.0 3.0 0.00 0.11 0.00 84 1013.8
20211018134345 50 150 0.0 4.0 0.00 0.11 0.00 84 1013.7
20211018133823 50 150 0.0 4.0 0.00 0.11 0.00 84 1013.5
20211018131851 50 144 0.0 3.0 0.00 0.11 0.00 84 1013.4
20211018131340 50 148 1.0 3.0 0.00 0.11 0.00 84 1013.2
20211018130827 50 179 0.0 3.0 0.00 0.11 0.00 84 1013.3
20211018130316 50 133 0.0 3.0 0.00 0.11 0.00 85 1013.3
20211018124912 50 128 0.0 1.0 0.00 0.11 0.11 85 1013.0
20211018124354 50 128 1.0 2.0 0.00 0.11 0.11 85 1012.9
20211018123827 50 128 2.0 4.0 0.00 0.11 0.11 85 1012.8
20211018123321 50 128 2.0 4.0 0.00 0.11 0.11 85 1012.9
20211018122825 50 173 0.0 5.0 0.00 0.11 0.11 85 1012.9
20211018122324 50 173 0.0 5.0 0.00 0.11 0.11 85 1012.9
20211018121825 50 134 0.0 3.0 0.00 0.11 0.11 85 1012.8
20211018120914 50 132 0.0 3.0 0.00 0.11 0.11 85 1012.8
20211018115900 50 132 0.0 2.0 0.00 0.11 0.11 85 1012.6
20211018115340 50 136 1.0 6.0 0.00 0.11 0.11 85 1012.6
20211018114818 50 149 1.0 6.0 0.00 0.11 0.11 85 1012.5
20211018111911 50 129 2.0 4.0 0.00 0.11 0.11 86 1012.2
20211018111352 50 116 3.0 4.0 0.00 0.11 0.11 86 1012.2
20211018110855 50 115 3.0 4.0 0.00 0.11 0.11 86 1012.2
20211018110358 50 115 0.0 6.0 0.00 0.11 0.11 86 1012.2
20211018105847 50 116 1.0 6.0 0.00 0.11 0.11 86 1012.2
20211018105332 50 123 3.0 5.0 0.00 0.11 0.11 86 1012.3
20211018104841 50 109 3.0 4.0 0.00 0.11 0.11 86 1012.4
20211018104343 50 111 1.0 4.0 0.00 0.11 0.11 86 1012.4
20211018103830 50 111 3.0 4.0 0.00 0.11 0.11 86 1012.5
20211018103329 50 111 2.0 3.0 0.00 0.11 0.11 86 1012.5
20211018102818 50 129 3.0 3.0 0.00 0.11 0.11 86 1012.5
20211018102414 49 130 2.0 3.0 0.00 0.11 0.11 86 1012.5
20211018101909 49 152 1.0 3.0 0.00 0.11 0.11 86 1012.5
20211018100415 49 159 1.0 2.0 0.00 0.11 0.11 86 1012.5
20211018095912 49 159 1.0 2.0 0.00 0.11 0.11 86 1012.4
20211018094909 49 159 1.0 3.0 0.00 0.11 0.11 85 1012.4
20211018094415 49 166 0.0 3.0 0.00 0.11 0.11 85 1012.5
20211018093909 49 166 0.0 3.0 0.00 0.11 0.11 85 1012.4
20211018093350 49 152 1.0 5.0 0.00 0.11 0.11 86 1012.3
20211018092836 49 156 3.0 5.0 0.00 0.11 0.11 86 1012.3
20211018092329 49 145 0.0 1.0 0.00 0.11 0.11 86 1012.5
20211018091816 50 145 0.0 2.0 0.00 0.11 0.11 86 1012.6
20211018090901 50 142 0.0 2.0 0.00 0.11 0.11 86 1012.4
20211018090352 50 142 0.0 2.0 0.00 0.11 0.11 86 1012.5
20211018085817 50 141 0.0 5.0 0.00 0.11 0.11 86 1012.3
20211018085338 50 142 2.0 5.0 0.00 0.11 0.11 87 1012.2
20211018084830 50 153 0.0 3.0 0.00 0.11 0.11 87 1012.3
20211018084329 50 152 1.0 3.0 0.00 0.11 0.11 87 1012.3
20211018083826 50 153 1.0 2.0 0.00 0.11 0.11 87 1012.2
20211018083321 50 153 0.0 0.0 0.00 0.11 0.11 87 1012.1
20211018082836 50 153 0.0 1.0 0.00 0.11 0.11 86 1012.1
20211018082316 50 153 0.0 3.0 0.00 0.11 0.11 86 1012.0
20211018081831 50 153 0.0 3.0 0.00 0.11 0.11 86 1012.0
20211018081331 50 149 0.0 0.0 0.00 0.11 0.11 86 1012.1
20211018080826 50 150 0.0 0.0 0.00 0.11 0.11 86 1012.1
20211018080327 50 149 0.0 0.0 0.00 0.11 0.11 86 1012.2
20211018075825 50 152 0.0 0.0 0.00 0.11 0.11 86 1012.1
20211018075321 50 152 0.0 0.0 0.00 0.11 0.11 86 1012.1